Warning: Javascript must be enabled to use all the features on this page!


Page Loading - Please Wait...

Click to hideNews Bulletins

Peak Streamflow for the Nation

USGS 10338500 DONNER C A DONNER LK NR TRUCKEE CA

Nevada County, California
Hydrologic Unit Code 16050102
Latitude  39°19'25", Longitude 120°14'00" NAD27
Drainage area 14.3  square miles
Gage datum 5,924.40 feet above NGVD29
Output formats
Table
Graph
Tab-separated file
peakfq (watstore) format
Reselect output format
Water
Year
Date Gage
Height
(feet)
Stream-
flow
(cfs)
1910 1909-11-25 3.003 1216
1931 1931-05-26   1021,6
1932 1932-05-22   3001,6
1933 1933-05-31   2211,6
1934 1934-03-30   2441,6
1935 1935-05-23   2281,6
1936 1936-06-07   3031,6
1937 1937-05-16   1511,6
1938 1937-12-11   6001,6
1939 1939-04-30   2041,6
1940 1940-04-15   3451,6
1941 1941-05-10   3011,6
1942 1942-05-13   2511,6
1943 1943-09-04   2061,6
1944 1944-05-23   1461,6
1945 1945-05-06   2481,6
1946 1946-05-11   1701,6
1947 1947-05-04   1461,6
1948 1948-02-09   1511,6
1949 1949-05-17   1021,6
1950 1950-05-29   2241,6
1951 1950-11-21   7001,2,6
1952 1952-05-29   2781,6
1956 1955-12-29   2891,6
1957 1957-05-19   3751,6
1959 1959-04-14 3.76 4086
1960 1960-04-07 2.95 2156
1961 1961-09-09 2.48 1186
1962 1962-05-06 3.052 2346
1963 1963-02-07 3.63 3816
1964 1964-09-16 2.83 1676
1965 1964-12-25 4.55 6956
1966 1965-10-22 3.06 1416
1967 1967-05-24 4.05 4286
1968 1968-05-21 3.35 2056
1969 1969-05-13 3.76 3466
1970 1970-01-24 4.24 4896
1971 1971-05-28 3.61 2806
1972 1972-05-19 3.27 1756
1973 1973-05-18 3.40 2076
1974 1974-07-09 4.33 5226
1975 1975-06-03 3.76 3146
1976 1975-10-06 3.12 1316
1977 1976-10-21 3.01 1116
1978 1978-05-15 4.02 3976
1979 1979-05-18 3.47 2046
1980 1980-01-14 4.35 4516
1981 1980-10-27 3.36 1796
1982 1981-12-20 4.24 4526
1983 1983-05-31 4.01 3686
1984 1984-05-23 3.60 2356
1985 1985-09-09 3.78 2946
1986 1986-02-19 4.83 7076
1987 1986-10-03 3.62 2066
1988 1987-10-08 3.18 1066
1989 1989-05-08 3.95 3006
1990 1989-10-23 4.11 1616
1991 1990-10-13 3.97 1296
1992 1992-07-07 3.76 88.06
1993 1993-05-03 4.09 1636
1994 1993-10-01 3.67 73.06
1995 1995-05-02 4.74 3416
1996 1996-05-18 5.77 5446
1997 1997-01-02 6.69 8636
1998 1998-03-25 4.49 2656
1999 1999-05-26 5.59 4946
2000 2000-05-25 4.30 1776
2001 2001-09-20 3.72 80.06
2002 2002-04-15 4.03 1536
2003 2003-05-25 5.02 3786
2004 2003-11-04 4.18 1816
2005 2005-05-19 5.68 5686
2006 2005-12-31 5.26 4786
2007 2007-05-02 4.46 2666
2008 2008-05-16 4.53 2836
2009 2009-05-02 5.33 4976
2010 2010-06-06 4.67 3206
2011 2011-06-29 5.13 4436
2012 2012-04-26 5.66 5886
2013 2012-12-02 4.58 2966
2014 2014-02-11 3.73 94.06
2015 2015-02-09 3.75 98.06
2016 2016-05-07 4.57 2956
2017 2017-01-11 6.14 3616
2018 2018-09-12 4.372 2496
2019 2019-06-03 4.50 2866
2020 2020-05-18 5.53 5636
?
  Peak Gage-Height Qualification Codes.
?
  Peak Streamflow Qualification Codes.